Weather History for KORL - January, 2014

Change the Weather History Date:

Saturday, January 11, 2014

  Actual Average Record
Temperature  
Mean Temperature 75 °F -  
Max Temperature 84 °F 68 °F 84 °F (2014)
Min Temperature 66 °F 48 °F 39 °F (2004)
Cooling Degree Days 10    
Growing Degree Days 25 (Base 50)    
Moisture  
Dew Point 68 °F    
Average Humidity 85    
Maximum Humidity 100    
Minimum Humidity 49    
Precipitation  
Precipitation 0.67 in - - ()
Sea Level Pressure  
Sea Level Pressure 30.03 in    
Wind  
Wind Speed 10 mph (SSW)    
Max Wind Speed 23 mph    
Max Gust Speed 39 mph    
Visibility 8 miles    
Events Rain    
Averages and records for this station are not official NWS values.
T = Trace of Precipitation, MM = Missing Value Source: NWS Daily Summary

Daily Weather History Graph

Daily Weather History Graph

Search for Another Location

Airport or City:

Trip Planner

Search our weather history database for the weather conditions in past years. The results will help you decide how hot, cold, wet, or windy it might be!

Date:

Astronomy

Jan. 11, 2014 Rise Set
Actual Time 7:19 AM EST 5:47 PM EST
Civil Twilight 6:53 AM EST 6:13 PM EST
Nautical Twilight 6:24 AM EST 6:42 PM EST
Astronomical Twilight 5:56 AM EST 7:10 PM EST
Moon 2:27 PM EST (1/11) 3:27 AM EST (1/11)
Length of Visible Light 11h 19m
Length of Day
10h 28m
Waxing Gibbous, 83% of the Moon is Illuminated
Jan 11
Waxing Gibbous
Jan 15
Full
Jan 24
Last Quarter
Jan 30
New
Feb 6
First Quarter

Hourly Weather History & Observations

Time (EST) Temp. Heat Index Dew Point Humidity Pressure Visibility Wind Dir Wind Speed Gust Speed Precip Events Conditions
12:53 AM 70.0 °F - 68.0 °F 93% 30.10 in 10.0 mi SSE 5.8 mph - N/A   Overcast
1:53 AM 71.1 °F - 69.1 °F 93% 30.09 in 10.0 mi SSE 8.1 mph - N/A   Mostly Cloudy
2:53 AM 70.0 °F - 69.1 °F 97% 30.07 in 10.0 mi SSE 5.8 mph - N/A   Scattered Clouds
3:53 AM 70.0 °F - 69.1 °F 97% 30.07 in 10.0 mi SSE 5.8 mph - N/A   Mostly Cloudy
4:49 AM 69.8 °F - 69.8 °F 100% 30.05 in 10.0 mi South 5.8 mph - N/A   Partly Cloudy
4:53 AM 70.0 °F - 69.1 °F 97% 30.06 in 10.0 mi South 5.8 mph - N/A   Partly Cloudy
5:11 AM 69.8 °F - 69.8 °F 100% 30.05 in 10.0 mi South 5.8 mph - N/A   Mostly Cloudy
5:36 AM 69.8 °F - 69.8 °F 100% 30.04 in 9.0 mi South 9.2 mph - N/A   Overcast
5:53 AM 70.0 °F - 69.1 °F 97% 30.06 in 8.0 mi South 8.1 mph - N/A   Overcast
6:53 AM 70.0 °F - 70.0 °F 100% 30.06 in 8.0 mi South 9.2 mph - N/A   Overcast
7:53 AM 70.0 °F - 69.1 °F 97% 30.07 in 3.0 mi SSW 11.5 mph - N/A   Overcast
8:11 AM 69.8 °F - 69.8 °F 100% 30.07 in 2.0 mi South 10.4 mph - N/A   Overcast
8:42 AM 71.6 °F - 69.8 °F 94% 30.07 in 4.0 mi South 11.5 mph - N/A   Overcast
8:53 AM 71.1 °F - 70.0 °F 96% 30.09 in 9.0 mi South 10.4 mph - N/A   Overcast
9:02 AM 71.6 °F - 69.8 °F 94% 30.08 in 10.0 mi South 11.5 mph - N/A   Overcast
9:53 AM 72.0 °F - 70.0 °F 93% 30.10 in 10.0 mi South 11.5 mph - N/A   Overcast
10:12 AM 73.4 °F - 71.6 °F 94% 30.08 in 10.0 mi South 11.5 mph - N/A   Overcast
10:53 AM 77.0 °F - 71.1 °F 82% 30.08 in 10.0 mi South 11.5 mph 19.6 mph N/A   Overcast
10:55 AM 77.0 °F - 71.6 °F 83% 30.07 in 10.0 mi South 13.8 mph 19.6 mph N/A   Mostly Cloudy
11:53 AM 79.0 °F - 68.0 °F 69% 30.05 in 10.0 mi South 13.8 mph 20.7 mph N/A   Mostly Cloudy
12:06 PM 78.8 °F - 69.8 °F 74% 30.03 in 10.0 mi SSW 10.4 mph - N/A   Mostly Cloudy
12:53 PM 82.0 °F 84.9 °F 68.0 °F 62% 30.00 in 10.0 mi SSW 19.6 mph 26.5 mph N/A   Scattered Clouds
1:53 PM 84.0 °F 85.8 °F 64.9 °F 53% 29.95 in 10.0 mi SSW 19.6 mph 26.5 mph N/A   Scattered Clouds
2:53 PM 84.0 °F 84.9 °F 63.0 °F 49% 29.93 in 10.0 mi SW 18.4 mph 25.3 mph N/A   Mostly Cloudy
3:53 PM 84.0 °F 85.4 °F 64.0 °F 51% 29.93 in 10.0 mi SW 23.0 mph 35.7 mph N/A   Partly Cloudy
4:53 PM 82.0 °F 83.1 °F 63.0 °F 52% 29.92 in 10.0 mi SW 21.9 mph 31.1 mph N/A   Partly Cloudy
5:53 PM 79.0 °F - 64.0 °F 60% 29.94 in 10.0 mi SW 17.3 mph 27.6 mph N/A   Partly Cloudy
6:53 PM 78.1 °F - 66.0 °F 66% 29.95 in 10.0 mi SW 15.0 mph 21.9 mph N/A   Mostly Cloudy
7:53 PM 75.9 °F - 66.9 °F 74% 29.97 in 10.0 mi SW 13.8 mph - 0.00 in Rain Light Rain
8:29 PM 69.8 °F - 66.2 °F 88% 30.00 in 2.0 mi West 23.0 mph 39.1 mph 0.21 in Rain Light Rain
8:34 PM 69.8 °F - 64.4 °F 83% 30.00 in 0.8 mi WSW 16.1 mph 39.1 mph 0.50 in Rain Heavy Rain
8:43 PM 68.0 °F - 66.2 °F 94% 29.99 in 1.5 mi West 17.3 mph 24.2 mph 0.66 in Rain Rain
8:46 PM 69.8 °F - 66.2 °F 88% 29.99 in 4.0 mi West 15.0 mph 23.0 mph 0.67 in Rain Light Rain
8:53 PM 69.1 °F - 66.0 °F 90% 30.00 in 10.0 mi West 11.5 mph 23.0 mph 0.67 in Rain Light Rain
9:09 PM 69.8 °F - 66.2 °F 88% 29.99 in 10.0 mi West 11.5 mph - 0.00 in   Overcast
9:18 PM 69.8 °F - 66.2 °F 88% 29.99 in 10.0 mi West 10.4 mph - 0.00 in   Mostly Cloudy
9:53 PM 69.1 °F - 66.9 °F 93% 30.01 in 10.0 mi SW 10.4 mph - 0.00 in   Overcast
10:53 PM 68.0 °F - 66.0 °F 93% 30.01 in 10.0 mi SW 5.8 mph - N/A   Clear
11:46 PM 66.2 °F - 66.2 °F 100% 30.00 in 10.0 mi SW 8.1 mph - N/A   Partly Cloudy
11:53 PM 66.9 °F - 66.0 °F 97% 30.00 in 10.0 mi SW 6.9 mph - N/A   Partly Cloudy